Location: Nordegg
(52.4712°N, 116.0743°W)
Time: 14:56:41
(UTC+00:00)

Envisat - Pass Details

Date: 09 December 2021
Orbit: 764 x 766 km, 98.2° (Epoch: 26 January)

Event Time Altitude Azimuth Distance (km) Brightness Sun altitude
Rises 00:22:07 0° 186° (S) 3,222 6.8 -7.4°
Reaches altitude 10° 00:24:33 10° 194° (SSW) 2,300 6.1 -7.7°
Maximum altitude 00:29:17 39° 263° (W) 1,134 4.6 -8.3°
Drops below altitude 10° 00:34:05 10° 333° (NNW) 2,317 5.5 -9.0°
Sets 00:36:33 0° 341° (NNW) 3,248 6.2 -9.3°
